Regional Weather Roundup
Issued by NWS

Home | Current Version | Previous Version | Text Only | Print | Product List | Glossary On
Versions: 1 2 3 4 5 6 7 8 9 10 11 12 13 14 15 16 17 18 19 20 21 22 23 24 25 26 27 28 29 30 31 32 33 34 35 36 37 38 39 40 41 42 43 44 45 46 47 48 49 50
000
ASUS43 KLOT 261812
RWRIL

ILLINOIS REGIONAL WEATHER ROUNDUP
NATIONAL WEATHER SERVICE CHICAGO/ROMEOVILLE IL
1200 PM CST SUN FEB 26 2017

NOTE: "FAIR" INDICATES FEW OR NO CLOUDS BELOW 12,000 FEET WITH NO
SIGNIFICANT WEATHER AND/OR OBSTRUCTIONS TO VISIBILITY.

* THESE STATIONS ARE NOT UNDER NWS QUALITY CONTROL. THEY ALSO MAY NOT
  REPORT WEATHER SUCH AS PRECIPITATION OR FOG.

ILZ001-002-007-009-015-016-024-261900-
NORTHWEST ILLINOIS

CITY           SKY/WX    TMP DP  RH WIND       PRES   REMARKS
MOLINE         SUNNY     46  23  40 SW20G29   29.96F
6HR MIN TEMP:  31; 6HR MAX TEMP:  47;

STERLING*      SUNNY     43  24  47 SW15G23   29.95S
$$

ILZ003-004-008-010-011-017-018-261900-
NORTH CENTRAL ILLINOIS

CITY           SKY/WX    TMP DP  RH WIND       PRES   REMARKS
ROCKFORD       MOSUNNY   41  23  48 SW21G30   29.94S
6HR MIN TEMP:  28; 6HR MAX TEMP:  42;

FREEPORT*      SUNNY     39  26  57 SW20G26   29.93F WCI  30
ROCHELLE*      PTSUNNY   41  24  51 SW25      29.95F
DE KALB*       PTSUNNY   41  24  51 SW21G31   29.95F
PERU*          SUNNY     44  20  37 SW22      29.99S
$$

ILZ005-006-012>014-019>023-261900-
NORTHEAST ILLINOIS

CITY           SKY/WX    TMP DP  RH WIND       PRES   REMARKS
CHICAGO-OHARE  PTSUNNY   43  19  38 SW21G35   29.94F
6HR MIN TEMP:  25; 6HR MAX TEMP:  43;

CHICAGO-MIDWAY PTSUNNY   45  18  34 SW21G31   29.97F
6HR MIN TEMP:  25; 6HR MAX TEMP:  45;

AURORA         PTSUNNY   45  22  40 SW24G33   29.96F
6HR MIN TEMP:  26; 6HR MAX TEMP:  45;

LANSING*       SUNNY     43  24  46 SW26G35   30.00F
JOLIET*        MOSUNNY   45  20  36 SW17G28   30.00F
WAUKEGAN       SUNNY     41  21  44 SW22G40   29.91F
6HR MIN TEMP:  25; 6HR MAX TEMP:  42;

DUPAGE AIRPORT PTSUNNY   42  19  39 SW22G33   29.95F
6HR MIN TEMP:  25; 6HR MAX TEMP:  42;

KANKAKEE*      SUNNY     45  19  36 SW25G35   30.04S
WHEELING       PTSUNNY   41  17  38 SW15G33   29.95F
6HR MIN TEMP:  24; 6HR MAX TEMP:  41;

MORRIS*        MOSUNNY   44  20  38 SW24G32   29.98F
ROMEOVILLE*    MOSUNNY   43  24  47 SW26G37   29.98F
NORTHERLY ISL    N/A     41  15  35 SW22        N/A
$$

LMZ740>746-261900-
SOUTHERN LAKE MICHIGAN

STATION/POSITION SKY/WX   TEMP    WIND        PRES    VSBY  WAVE
                          AIR SEA DIR/SP/G                  HT/PER
                          (F)     (DEG/KT/KT) (MB)    (MI)  (FT/S)
HARRISON CRIB              40     210/ 33/ 36   N/A
BURNHAM HARBOR             42     200/ 17/ 24   N/A
CALUMET HARBOR             41     200/ 18/ 28 1014.7F
BURNS HARBOR               40     210/ 23/ 31 1015.9F
MICHIGAN CITY              38     170/ 27/ 31   N/A
$$

ILZ025>027-034>036-040-047-049-050-058-095>099-261900-
WEST-CENTRAL ILLINOIS

CITY           SKY/WX    TMP DP  RH WIND       PRES   REMARKS
QUINCY         MOSUNNY   46  20  35 SW14      30.03F
GALESBURG*     SUNNY     44  23  43 SW13G23   30.00S
MACOMB*        SUNNY     47  21  35 SW20      30.03F
JACKSONVILLE*  MOSUNNY   46  17  32 S17G24    30.07F
PITTSFIELD*    CLOUDY    45  20  36 S20G26    30.07F
$$

ILZ028>032-037-038-041>044-048-051>054-059>061-261900-
CENTRAL ILLINOIS

CITY           SKY/WX    TMP DP  RH WIND       PRES   REMARKS
PONTIAC        SUNNY     46  18  33 SW24G31   30.03F
BLOOMINGTON    PTSUNNY   43  18  36 SW25G35   30.03F
DECATUR        MOSUNNY   45  14  28 S23G30    30.09F
PEORIA         PTSUNNY   44  17  33 SW16G28   30.03F
6HR MIN TEMP:  26; 6HR MAX TEMP:  45;

LACON*         SUNNY     44  20  38 SW15G23   30.02S
LINCOLN*       PTSUNNY   46  20  36 SW13G25   30.06F
SPRINGFIELD    SUNNY     46  17  31 S21G31    30.08F
6HR MIN TEMP:  28; 6HR MAX TEMP:  47;

TAYLORVILLE    SUNNY     44  16  31 S25       30.10F
6HR MIN TEMP:  24; 6HR MAX TEMP:  45;

$$

ILZ033-039-045-046-055>057-062-063-261900-
EAST-CENTRAL ILLINOIS

CITY           SKY/WX    TMP DP  RH WIND       PRES   REMARKS
CHAMPAIGN      MOSUNNY   46  15  28 S24G33    30.08F
RANTOUL*       MOSUNNY   46  18  32 SW23G29   30.07F
MATTOON        SUNNY     42  18  37 S16G26    30.12F
PARIS*         SUNNY     45  18  34 S16       30.13F
$$

ILZ079-100>102-261900-
SOUTHWEST ILLINOIS

CITY           SKY/WX    TMP DP  RH WIND       PRES   REMARKS
ALTON          CLOUDY    41  16  36 S14G21    30.14F
BELLEVILLE     CLOUDY    44  17  34 VRB5      30.13F
CAHOKIA*       CLOUDY    43  13  29 S12       30.14F
SPARTA*        PTSUNNY   43  17  34 S14       30.16F
$$

ILZ064>066-069>071-074>076-080>082-084>086-088>090-092>094-261900-
SOUTH-CENTRAL ILLINOIS

CITY           SKY/WX    TMP DP  RH WIND       PRES   REMARKS
CARBONDALE     MOSUNNY   46  16  30 S16       30.17F
6HR MIN TEMP:  22; 6HR MAX TEMP:  46;

CAIRO*         MOSUNNY   47  21  35 S10       30.19F
EFFINGHAM*     SUNNY     46  20  36 S13       30.16F
MARION         CLOUDY    46  18  31 S12       30.19F
MT. VERNON     CLOUDY    46  19  34 S10       30.17F
CENTRALIA*     CLOUDY    45  22  40 S13       30.15F
SALEM*         CLOUDY    45  18  33 S14       30.16F
METROPOLIS*    MOSUNNY   50  21  32 CALM      30.20F
$$

ILZ067-068-072-073-078-083-087-091-261900-
SOUTHEAST ILLINOIS

CITY           SKY/WX    TMP DP  RH WIND       PRES   REMARKS
LAWRENCEVILLE  SUNNY     45  18  34 S16       30.19F
FLORA*         SUNNY     44  20  38 S15       30.18F
FAIRFIELD*     CLOUDY    44  19  37 S7        30.17F
HARRISBURG*    SUNNY     47  19  32 S10       30.19F
ROBINSON*      SUNNY     44  18  34 S14       30.18F
CARMI*         MOSUNNY   46  20  35 S12G18    30.18F
$$

ABBREVIATIONS USED IN REMARKS
   TC - TEMPERATURE IN CELSIUS
  WCI - WIND CHILL INDEX
   HX - HEAT INDEX
  VSB - VISIBILITY
$$





USA.gov is the U.S. government's official web portal to all federal, state and local government web resources and services.